Muskegon, MI

7:04 AM EST on January 19, 2018 (GMT -0500)
Muskegon County

Weather History for KMKG - January, 2013

Change the Weather History Date:

Saturday, January 12, 2013

  Actual Average Record
Temperature  
Mean Temperature 45 °F 26 °F  
Max Temperature 53 °F 31 °F 59 °F (2005)
Min Temperature 37 °F 20 °F -21 °F (1912)
Degree Days  
Heating Degree Days 20 40  
Month to date heating degree days 370 467  
Since 1 July heating degree days 2569 2913  
Cooling Degree Days 0 0  
Month to date cooling degree days 0 0  
Year to date cooling degree days 0 0  
Moisture  
Dew Point 39 °F    
Average Humidity 72    
Maximum Humidity 83    
Minimum Humidity 60    
Precipitation  
Precipitation T in 0.06 in 1.56 in (1960)
Month to date precipitation 1.15 0.85  
Year to date precipitation 1.15 0.85  
Snow  
Snow 0.00 in 0.90 in 8.00 in (1918)
Month to date snowfall 0.5 10.8  
Since 1 July snowfall 8.7 45.9  
Snow Depth 0.00 in    
Sea Level Pressure  
Sea Level Pressure 29.85 in    
Wind  
Wind Speed 14 mph (SW)    
Max Wind Speed 25 mph    
Max Gust Speed 37 mph    
Visibility 10 miles    
Events Rain    
T = Trace of Precipitation, MM = Missing Value Source: NWS Daily Summary

Daily Weather History Graph

Daily Weather History Graph

Search for Another Location

Airport or City:

Trip Planner

Search our weather history database for the weather conditions in past years. The results will help you decide how hot, cold, wet, or windy it might be!

Date:

Astronomy

Jan. 12, 2013 Rise Set
Actual Time 8:15 AM EST 5:32 PM EST
Civil Twilight 7:43 AM EST 6:03 PM EST
Nautical Twilight 7:08 AM EST 6:39 PM EST
Astronomical Twilight 6:33 AM EST 7:13 PM EST
Moon 8:30 AM EST (1/12) 7:03 PM EST (1/12)
Length of Visible Light 10h 20m
Length of Day
9h 16m
New Moon, 1% of the Moon is Illuminated
Jan 12
New Moon
Jan 18
First Quarter
Jan 26
Full
Feb 3
Last Quarter
Feb 10
New

Hourly Weather History & Observations

Time (EST) Temp. Windchill Dew Point Humidity Pressure Visibility Wind Dir Wind Speed Gust Speed Precip Events Conditions
12:55 AM 52.0 °F - 46.0 °F 80% 29.73 in 10.0 mi South 19.6 mph 35.7 mph N/A   Clear
1:55 AM 53.1 °F - 46.0 °F 77% 29.74 in 10.0 mi South 20.7 mph 33.4 mph N/A   Clear
2:55 AM 51.1 °F - 45.0 °F 80% 29.75 in 10.0 mi South 18.4 mph 33.4 mph N/A   Clear
3:55 AM 51.1 °F - 44.1 °F 77% 29.75 in 10.0 mi South 23.0 mph 31.1 mph N/A   Clear
4:55 AM 50.0 °F - 44.1 °F 80% 29.73 in 10.0 mi South 23.0 mph 33.4 mph N/A   Clear
5:55 AM 50.0 °F - 43.0 °F 77% 29.74 in 10.0 mi SSW 21.9 mph 29.9 mph N/A   Clear
6:55 AM 50.0 °F - 43.0 °F 77% 29.75 in 10.0 mi South 20.7 mph 33.4 mph N/A   Clear
7:55 AM 50.0 °F - 44.1 °F 80% 29.77 in 10.0 mi South 20.7 mph 27.6 mph N/A   Clear
8:55 AM 50.0 °F - 43.0 °F 77% 29.79 in 10.0 mi South 21.9 mph 32.2 mph N/A   Clear
9:55 AM 50.0 °F - 44.1 °F 80% 29.82 in 10.0 mi South 18.4 mph 27.6 mph N/A   Partly Cloudy
10:55 AM 50.0 °F - 44.1 °F 80% 29.85 in 10.0 mi SSW 15.0 mph 25.3 mph N/A   Partly Cloudy
11:55 AM 51.1 °F - 43.0 °F 74% 29.86 in 10.0 mi SSW 15.0 mph 23.0 mph N/A   Partly Cloudy
12:55 PM 48.9 °F - 39.0 °F 69% 29.88 in 10.0 mi SW 18.4 mph 23.0 mph N/A   Partly Cloudy
1:55 PM 48.0 °F - 36.0 °F 63% 29.89 in 10.0 mi WSW 12.7 mph 19.6 mph N/A   Clear
2:55 PM 46.0 °F 39.9 °F 34.0 °F 63% 29.92 in 10.0 mi SW 13.8 mph - N/A   Partly Cloudy
3:55 PM 43.0 °F 37.7 °F 32.0 °F 65% 29.94 in 10.0 mi WSW 9.2 mph - N/A   Partly Cloudy
4:55 PM 42.1 °F 37.1 °F 33.1 °F 70% 29.95 in 10.0 mi WSW 8.1 mph - N/A   Scattered Clouds
5:55 PM 42.1 °F 37.7 °F 34.0 °F 73% 29.97 in 10.0 mi WSW 6.9 mph - 0.00 in Rain Light Rain
6:55 PM 41.0 °F 34.7 °F 32.0 °F 70% 29.96 in 10.0 mi West 10.4 mph - 0.00 in   Mostly Cloudy
7:55 PM 39.0 °F 34.8 °F 30.9 °F 73% 29.95 in 10.0 mi West 5.8 mph - N/A   Scattered Clouds
8:55 PM 39.0 °F - 30.0 °F 70% 29.94 in 10.0 mi Calm Calm - N/A   Overcast
9:55 PM 37.9 °F 33.5 °F 30.0 °F 73% 29.94 in 10.0 mi WNW 5.8 mph - 0.00 in Rain Light Rain
10:55 PM 37.0 °F 30.4 °F 28.9 °F 73% 29.94 in 10.0 mi NW 9.2 mph - 0.00 in Rain Light Rain
11:55 PM 37.0 °F 31.6 °F 30.0 °F 76% 29.93 in 10.0 mi North 6.9 mph - 0.00 in Rain Light Rain